星链-35117(STARLINK-35117)

导读 | 豆包AI

STARLINK-35117是美国SpaceX星链星座的一颗卫星,于2025年9月18日发射升空,属于SpaceX大规模低轨卫星互联网组网计划的一员,旨在为全球提供高速低延迟宽带互联网服务,特别服务偏远地区和网络基础设施匮乏区域。该卫星运行在近地轨道,通过星链星座集群协同实现全球覆盖。

基本信息
目录编号:
65632
目录名称:
STARLINK-35117
国际标识:
2025-210L
轨道中心:
EARTH
卫星名称:
星链-35117
卫星全名:
星链-35117(STARLINK-35117)
卫星状态:
在轨 (已飞行223 天)
发射日期:
2025-09-18 UTC
国别 :
美国 (US)
星等 :
--
轨道信息
数据来源 国际轨道数据 AOE轨道数据
星历时间 2026-04-29T11:47:00+0800
4小时前
查看轨道信息
2026-04-28T16:00:00+0800
1天前
查看轨道信息
半长轴 6853.339km 6853.383km
偏心率 0.0000867 0.0001345
轨道倾角 53.159° 53.158°
近地点辐角 110.797° 105.153°
升交点赤经 72.963° 76.793°
平近点角 249.312° 31.549°
近地点 474.607km 474.324km
远地点 475.797km 476.168km
周期 94.105分钟 94.106分钟
每日圈数 15.302047 15.301899
详细信息
固有亮度:
5
最大亮度:
2.5
卫星平台:
Starlink V1.0
覆盖范围:
全球
运营商:
太空探索技术公司
运营商所在国:
美国
制造商(研发单位):
太空探索技术公司
制造商所在国:
美国
使用方式:
暂无
卫星简介
Starlink 计划是 SpaceX 推出的全球卫星互联网项目,通过发射低轨道卫星,为全球尤其是偏远地区提供高速、低延迟的互联网服务。自 2019 年起,Starlink 已部署数千颗卫星,旨在缩小全球数字鸿沟,推动互联网普及。该项目还为军事、航空等行业提供通信支持,带来广泛经济效益。
2D轨道图
3D轨道图
轨道高度分析图
轨道倾角分析图
轨道综合分析图
查看轨道综合分析图